This is the latest recevied weather packets stored in our database for station/object W6MAF. If no packets are shown the sender has not sent any weather packets the latest 10 day(s).
| Time | Temp. | Humidity | Pressure | Rain* | Wind** | Luminosity | Snow |
|---|---|---|---|---|---|---|---|
| 1777420603 | 18.89° C | 8% | - | 0 mm | 4.47 m/s, 204° | - | - |
| 1777420307 | 18.89° C | 7% | - | 0 mm | 4.92 m/s, 211° | - | - |
| 1777419710 | 18.89° C | 7% | - | 0 mm | 3.58 m/s, 191° | - | - |
| 1777419412 | 18.89° C | 6% | - | 0 mm | 2.24 m/s, 187° | - | - |
| 1777419114 | 18.89° C | 6% | - | 0 mm | 3.13 m/s, 184° | - | - |
| 1777418813 | 18.89° C | 6% | - | 0 mm | 1.34 m/s, 173° | - | - |
| 1777418516 | 18.89° C | 6% | - | 0 mm | 4.47 m/s, 136° | - | - |
| 1777418218 | 19.44° C | 6% | - | 0 mm | 1.79 m/s, 183° | - | - |
| 1777417920 | 18.89° C | 6% | - | 0 mm | 2.68 m/s, 179° | - | - |
| 1777417623 | 18.89° C | 6% | - | 0 mm | 4.02 m/s, 173° | - | - |
| 1777417325 | 19.44° C | 6% | - | 0 mm | 4.92 m/s, 191° | - | - |
| 1777417024 | 19.44° C | 6% | - | 0 mm | 4.02 m/s, 201° | - | - |
| 1777416726 | 19.44° C | 6% | - | 0 mm | 4.47 m/s, 169° | - | - |
| 1777416429 | 19.44° C | 6% | - | 0 mm | 3.58 m/s, 190° | - | - |
| 1777416131 | 19.44° C | 6% | - | 0 mm | 3.58 m/s, 201° | - | - |
| 1777415834 | 19.44° C | 6% | - | 0 mm | 4.47 m/s, 160° | - | - |
| 1777415536 | 19.44° C | 6% | - | 0 mm | 4.47 m/s, 198° | - | - |
| 1777415235 | 19.44° C | 6% | - | 0 mm | 4.02 m/s, 170° | - | - |
| 1777414937 | 19.44° C | 6% | - | 0 mm | 4.02 m/s, 201° | - | - |
| 1777414639 | 19.44° C | 6% | - | 0 mm | 4.47 m/s, 191° | - | - |
| 1777414044 | 18.89° C | 6% | - | 0 mm | 5.81 m/s, 195° | - | - |
| 1777413747 | 18.89° C | 6% | - | 0 mm | 3.13 m/s, 173° | - | - |
| 1777413446 | 18.89° C | 6% | - | 0 mm | 4.92 m/s, 173° | - | - |
| 1777413148 | 18.89° C | 6% | - | 0 mm | 3.58 m/s, 183° | - | - |
| 1777412553 | 18.89° C | 6% | - | 0 mm | 6.71 m/s, 170° | - | - |
* Rain latest hour (hover to see other rain measurements)
** Current wind speed in m/s (hover to see current wind gust speed)